2003 Sept. 5 12  16 32.74  +64 31.7   3.159  3.169     7.7 / 224  16.5   94  .72

           6 12  16 31.92  +64 26.2   3.158  3.164     7.5 / 222  16.5   97  .81

           7 12  16 31.15  +64 20.6   3.156  3.160     7.3 / 220  16.5  100  .89

           8 12  16 30.44  +64 15.1   3.154  3.156     7.0 / 218  16.5  102  .95

           9 12  16 29.77  +64 09.5   3.152  3.152     6.8 / 216  16.5  103  .98

          10 12  16 29.15  +64 04.0   3.150  3.148     6.6 / 214  16.5  104 1.00

          11 12  16 28.58  +63 58.5   3.148  3.144     6.5 / 212  16.5  104  .99

          12 12  16 28.06  +63 53.1   3.146  3.140     6.3 / 210  16.5  103  .97

          13 12  16 27.58  +63 47.6   3.144  3.136     6.1 / 208  16.5  102  .92

          14 12  16 27.16  +63 42.3   3.142  3.132     5.9 / 205  16.5  100  .86

          15 12  16 26.78  +63 36.9   3.140  3.128     5.7 / 203  16.4   98  .79

          16 12  16 26.44  +63 31.7   3.137  3.124     5.6 / 200  16.4   96  .71

          17 12  16 26.16  +63 26.5   3.135  3.120     5.4 / 198  16.4   93  .62

          18 12  16 25.91  +63 21.3   3.132  3.116     5.2 / 195  16.4   90  .53

          19 12  16 25.72  +63 16.3   3.130  3.112     5.1 / 192  16.4   87  .43

          20 12  16 25.56  +63 11.3   3.127  3.108     5.0 / 189  16.4   84  .34

          21 12  16 25.45  +63 06.4   3.125  3.105     4.8 / 185  16.4   82  .24

          22 12  16 25.38  +63 01.6   3.122  3.101     4.7 / 182  16.4   79  .16

          23 12  16 25.36  +62 56.9   3.119  3.097     4.6 / 178  16.4   77  .09

          24 12  16 25.38  +62 52.3   3.116  3.093     4.5 / 175  16.4   76  .04

          25 12  16 25.44  +62 47.8   3.113  3.090     4.4 / 171  16.4   75  .01

          26 12  16 25.54  +62 43.4   3.110  3.086     4.4 / 167  16.4   76  .00

          27 12  16 25.68  +62 39.1   3.107  3.082     4.3 / 163  16.4   77  .03

          28 12  16 25.86  +62 35.0   3.103  3.079     4.3 / 159  16.4   79  .08

          29 12  16 26.09  +62 31.0   3.100  3.075     4.3 / 155  16.4   82  .15

          30 12  16 26.35  +62 27.1   3.097  3.071     4.3 / 151  16.4   85  .25

     Oct.  1 12  16 26.65  +62 23.4   3.093  3.068     4.3 / 147  16.3   89  .35

           2 12  16 26.99  +62 19.8   3.090  3.064     4.3 / 143  16.3   92  .47

           3 12  16 27.36  +62 16.3   3.086  3.061     4.4 / 139  16.3   95  .58

           4 12  16 27.78  +62 13.0   3.082  3.057     4.5 / 135  16.3   98  .68

           5 12  16 28.23  +62 09.8   3.079  3.054     4.6 / 131  16.3  101  .78

           6 12  16 28.72  +62 06.8   3.075  3.051     4.7 / 127  16.3  103  .86

           7 12  16 29.25  +62 04.0   3.071  3.047     4.8 / 124  16.3  104  .92

           8 12  16 29.81  +62 01.3   3.067  3.044     4.9 / 121  16.3  104  .97

           9 12  16 30.41  +61 58.8   3.063  3.040     5.1 / 118  16.3  104  .99

          10 12  16 31.04  +61 56.5   3.058  3.037     5.2 / 115  16.3  103 1.00

NAKANO

         **** Don't distribute anyone except personal use only ****

                (C) Copyright 2003 OAA/ComputingSection

write mail from CFAD0::NAKANO on 2003-09-09 04:18:29(JST).

 

    C/2003 L2 (LINEAR)                                                    

T 2004 Jan. 19.26987 TT                                 Nakano

q   2.8639191            (2000.0)            P               Q

z  +0.0065901      Peri.  119.87145     +0.08889119     -0.12248326

 +/-0.0000321      Node   273.55106     +0.12128399     +0.98635671

e   0.9811264      Incl.   82.04758     +0.98862963     -0.10999225

From 190 observations 2003 June 12-Aug. 7.





NAKANO

         **** Don't distribute anyone except personal use only ****

                (C) Copyright 2003 OAA/ComputingSection

write mail from CFAD0::NAKANO on 2003-08-14 04:29:34(JST).

 



◎C/2003 L2の軌道と予報位置です



 彗星は,長円軌道(a=149AU)を動く,周期がP=1800年ほどの長周期彗星

でした.ASOのシェロ−ドによると,CCD全光度は,7月7日に17.2等,8日

に17.4等,9日に17.3等でした.



    C/2003 L2 (LINEAR)                                                    

T 2004 Jan. 19.35434 TT                                 Nakano

q   2.8630171            (2000.0)            P               Q

z  +0.0066955      Peri.  119.90357     +0.08891584     -0.12245917

 +/-0.0002661      Node   273.54471     +0.12183215     +0.98629859

e   0.9808307      Incl.   82.04508     +0.98856001     -0.11053889

From 85 observations 2003 June 12-July 9.

 

Date/        TT  R.A.(2000) Decl.     Delta   r     Daily motion  Mag.  Moon Age

              h    h  m       。  ,                      ,  / PA 。  m1      。

2003 July 10 14  18 33.98  +64 25.8   3.235  3.440    19.7 / 302  17.4   90  .86

          11 14  18 31.38  +64 36.1   3.233  3.435    19.5 / 301  17.4   91  .93

          12 14  18 28.75  +64 45.9   3.231  3.430    19.3 / 299  17.4   91  .98

          13 14  18 26.10  +64 55.3   3.228  3.424    19.2 / 298  17.4   92 1.00

          14 14  18 23.43  +65 04.2   3.226  3.419    19.0 / 297  17.4   92  .99

          15 14  18 20.74  +65 12.7   3.224  3.414    18.8 / 296  17.4   93  .96

          16 14  18 18.03  +65 20.7   3.222  3.409    18.6 / 294  17.4   93  .90

          17 14  18 15.30  +65 28.3   3.220  3.404    18.4 / 293  17.4   93  .83

          18 14  18 12.57  +65 35.4   3.218  3.398    18.2 / 292  17.4   93  .75

          19 14  18 09.82  +65 42.0   3.216  3.393    18.1 / 290  17.3   93  .66

          20 14  18 07.07  +65 48.3   3.214  3.388    17.9 / 289  17.3   93  .57

          21 14  18 04.32  +65 54.0   3.213  3.383    17.7 / 288  17.3   92  .47

          22 14  18 01.56  +65 59.3   3.211  3.378    17.5 / 287  17.3   92  .38

          23 14  17 58.81  +66 04.2   3.210  3.373    17.3 / 285  17.3   91  .29

          24 14  17 56.06  +66 08.7   3.208  3.368    17.1 / 284  17.3   90  .21

          25 14  17 53.32  +66 12.7   3.207  3.363    16.9 / 283  17.3   89  .14

          26 14  17 50.59  +66 16.3   3.205  3.357    16.7 / 281  17.3   87  .08

          27 14  17 47.88  +66 19.4   3.204  3.352    16.5 / 280  17.3   86  .03

          28 14  17 45.18  +66 22.2   3.203  3.347    16.3 / 279  17.3   85  .01

          29 14  17 42.50  +66 24.5   3.201  3.342    16.0 / 277  17.3   84  .00

          30 14  17 39.85  +66 26.4   3.200  3.337    15.8 / 276  17.3   83  .02

          31 14  17 37.22  +66 28.0   3.199  3.332    15.6 / 275  17.3   83  .06

     Aug.  1 14  17 34.62  +66 29.1   3.198  3.328    15.4 / 273  17.2   83  .13

           2 14  17 32.05  +66 29.9   3.197  3.323    15.2 / 272  17.2   83  .21

           3 14  17 29.51  +66 30.4   3.196  3.318    15.0 / 271  17.2   84  .31

           4 14  17 27.00  +66 30.4   3.195  3.313    14.8 / 269  17.2   85  .42

           5 14  17 24.54  +66 30.2   3.194  3.308    14.5 / 268  17.2   87  .53

           6 14  17 22.11  +66 29.6   3.193  3.303    14.3 / 267  17.2   89  .64

           7 14  17 19.72  +66 28.7   3.192  3.298    14.1 / 265  17.2   91  .75

           8 14  17 17.38  +66 27.4   3.191  3.293    13.9 / 264  17.2   93  .84

           9 14  17 15.08  +66 25.9   3.190  3.289    13.7 / 263  17.2   95  .92

          10 14  17 12.82  +66 24.1   3.189  3.284    13.4 / 261  17.2   97  .97

NAKANO

         **** Don't distribute anyone except personal use only ****

                (C) Copyright 2003 OAA/ComputingSection

write mail from CFAD0::NAKANO on 2003-07-10 01:35:17(JST).

 

◎C/2003 L2の軌道と予報位置です



 17等級で観測されています.



    C/2003 L2 (LINEAR)                                                    

T 2004 Jan. 16.44272 TT                                 Nakano

q   2.8913622            (2000.0)            P               Q

                   Peri.  118.92419     +0.08652441     -0.12459926

                   Node   273.85370     +0.10518577     +0.98774520

e   1.0            Incl.   82.16607     +0.99068132     -0.09399174

From 57 observations 2003 June 12-27.

 

Date/        TT  R.A.(2000) Decl.     Delta   r     Daily motion  Mag.  Moon Age

              h    h  m       。  ,                      ,  / PA 。  m1      。

2003 June 25 18  19 08.22  +61 03.8   3.299  3.534    21.8 / 319  17.6   89  .14

          26 18  19 06.21  +61 20.1   3.295  3.529    21.7 / 318  17.6   90  .08

          27 18  19 04.16  +61 36.1   3.291  3.523    21.6 / 317  17.6   90  .04

          28 18  19 02.06  +61 51.7   3.287  3.518    21.5 / 315  17.5   91  .01

          29 18  18 59.91  +62 06.9   3.283  3.512    21.3 / 314  17.5   91  .00

          30 18  18 57.72  +62 21.8   3.280  3.507    21.2 / 313  17.5   91  .01

     July  1 18  18 55.48  +62 36.3   3.276  3.501    21.1 / 312  17.5   92  .04

           2 18  18 53.20  +62 50.3   3.273  3.496    20.9 / 311  17.5   91  .09

           3 18  18 50.88  +63 04.0   3.269  3.491    20.8 / 310  17.5   91  .16

           4 18  18 48.51  +63 17.2   3.266  3.485    20.6 / 309  17.5   91  .25

           5 18  18 46.11  +63 30.0   3.263  3.480    20.5 / 308  17.5   91  .35

           6 18  18 43.67  +63 42.4   3.260  3.474    20.3 / 306  17.5   90  .46

           7 18  18 41.19  +63 54.4   3.257  3.469    20.1 / 305  17.5   90  .57

           8 18  18 38.68  +64 05.9   3.255  3.464    20.0 / 304  17.5   90  .68

           9 18  18 36.14  +64 17.0   3.252  3.458    19.8 / 303  17.4   90  .79

          10 18  18 33.57  +64 27.7   3.249  3.453    19.6 / 302  17.4   90  .88

          11 18  18 30.96  +64 37.9   3.247  3.448    19.5 / 300  17.4   91  .94

          12 18  18 28.34  +64 47.7   3.245  3.443    19.3 / 299  17.4   91  .98

          13 18  18 25.68  +64 57.0   3.242  3.437    19.1 / 298  17.4   92 1.00

          14 18  18 23.01  +65 05.9   3.240  3.432    18.9 / 297  17.4   92  .99

          15 18  18 20.31  +65 14.3   3.238  3.427    18.8 / 295  17.4   93  .95

          16 18  18 17.60  +65 22.3   3.236  3.422    18.6 / 294  17.4   93  .89

          17 18  18 14.88  +65 29.8   3.234  3.417    18.4 / 293  17.4   93  .82

          18 18  18 12.14  +65 36.8   3.232  3.411    18.2 / 292  17.4   93  .74

